Location: Mentone
(34.5413°N, 85.5351°W)
Time: 02:16:58
(UTC-05:00)

Amateur Radio Satellites - All Passes

Search period start: 23 May 2015 01:46
Search period end: 24 May 2015 01:46
Location: Mentone, 34.5413°N, 85.5351°W

Satellite Date Start Highest point End Downlink Frequencies (MHz)
Time Altitude Azimuth
SWISSCUBE 23 May 01:52:31 01:57:14 65° 259° (W) 02:01:58 437.505
Cosmos 2499 23 May 01:52:34 01:58:10 26° 72° (ENE) 02:04:00 435.465 / 435.565
Oscar 19 23 May 02:07:05 02:12:15 74° 101° (E) 02:17:23 437.125/150
ITAMSAT 1 23 May 02:11:50 02:15:41 21° 94° (E) 02:19:41 435.822/435.867
Gurwin Techsat 1B 23 May 02:22:20 02:26:40 26° 95° (E) 02:31:06 435.225
STARS 23 May 02:42:19 02:46:25 39° 73° (ENE) 02:50:35 437.465
O/OREOS (USA 219) 23 May 02:48:58 02:53:27 81° 251° (WSW) 02:57:55 437.305
PCSat 23 May 03:00:49 03:05:02 22° 308° (NW) 03:09:08 145.827
KKS-1 23 May 03:02:50 03:07:17 70° 259° (WSW) 03:11:46 437.445
GONETS M04 23 May 03:08:46 03:13:41 15° 279° (W) 03:17:56
VERMONT LUNAR 23 May 03:13:39 03:16:47 54° 151° (SSE) 03:19:55 437.305
AO-7 23 May 03:31:50 03:37:50 22° 93° (E) 03:44:11 29.400- 29.500
SO-50 23 May 03:33:53 03:38:07 38° 114° (ESE) 03:42:33 436.795
Cosmos 2499 23 May 03:44:55 03:51:34 45° 269° (W) 03:58:13 435.465 / 435.565
Oscar 19 23 May 03:49:09 03:51:03 12° 295° (WNW) 03:52:39 437.125/150
HORYU 2 23 May 03:49:46 03:53:39 30° 97° (E) 03:57:35 437.375
ITAMSAT 1 23 May 03:50:30 03:55:20 38° 288° (WNW) 04:00:07 435.822/435.867
BEESAT 3 23 May 03:52:39 03:56:23 34° 56° (NE) 04:00:05 437.485
AIST 2 23 May 03:58:38 03:59:12 10° 44° (NE) 03:59:59 435.215
MOZHAYETS 4 23 May 03:59:38 04:03:39 32° 73° (ENE) 04:07:44
Gurwin Techsat 1B 23 May 04:01:56 04:06:41 33° 289° (WNW) 04:11:20 435.225
STARS 23 May 04:20:21 04:23:04 15° 268° (W) 04:25:36 437.465
PHONESAT 2.4 23 May 04:25:24 04:28:48 55° 152° (SSE) 04:32:12 2401.200-2431.200
JAS-2 23 May 04:26:05 04:31:14 66° 101° (E) 04:36:31 435.910
BEESAT 2 23 May 04:35:00 04:39:07 87° 59° (ENE) 04:43:09 435.950
VERMONT LUNAR 23 May 04:51:05 04:54:05 35° 347° (NNW) 04:57:05 437.305
SO-50 23 May 05:15:06 05:18:49 22° 311° (NW) 05:22:32 436.795
AO-7 23 May 05:23:00 05:31:18 68° 290° (WNW) 05:39:33 29.400- 29.500
CUBESAT XI-V 23 May 05:26:34 05:29:54 21° 70° (ENE) 05:33:22 437.345
HORYU 2 23 May 05:26:51 05:30:08 20° 291° (WNW) 05:33:17 437.375
BEESAT 3 23 May 05:31:31 05:34:07 16° 250° (WSW) 05:36:30 437.485
AIST 2 23 May 05:34:10 05:38:23 77° 243° (WSW) 05:42:30 435.215
MOZHAYETS 4 23 May 05:37:31 05:40:57 20° 267° (W) 05:44:15
Cubesat XI-IV 23 May 05:50:44 05:53:39 15° 91° (E) 05:56:51 437.490
PHONESAT 2.4 23 May 06:03:44 06:07:00 38° 347° (NNW) 06:10:17 2401.200-2431.200
M-CUBED/EXP-1 PRIME 23 May 06:05:13 06:08:23 20° 67° (ENE) 06:11:31 437.505
JAS-2 23 May 06:13:55 06:15:55 12° 295° (WNW) 06:17:36 435.910
AUBIESAT-1 23 May 06:17:22 06:20:49 24° 68° (ENE) 06:24:09 437.475
VERMONT LUNAR 23 May 06:28:58 06:31:45 27° 4° (N) 06:34:33 437.305
STRAND 1 23 May 06:34:37 06:39:30 49° 73° (ENE) 06:44:25 437.568
ISS 23 May 06:37:17 06:38:34 12° 26° (NNE) 06:39:55 145.825
Cosmos 2491 23 May 06:52:36 07:01:18 60° 79° (E) 07:09:58 435.465 / 435.565
CUBESAT XI-V 23 May 07:03:04 07:07:10 31° 264° (W) 07:11:15 437.345
PRISM 23 May 07:06:26 07:10:27 56° 259° (W) 07:14:28 437.425
CUTE-I 23 May 07:09:33 07:14:56 86° 284° (WNW) 07:20:19 437.470
AO-7 23 May 07:19:19 07:22:48 13° 307° (NW) 07:25:44 29.400- 29.500
Cubesat XI-IV 23 May 07:28:55 07:34:09 55° 287° (WNW) 07:39:23 437.490
BRITE-PL 23 May 07:36:43 07:40:07 17° 89° (E) 07:43:43 437.365/2234.400
M-CUBED/EXP-1 PRIME 23 May 07:39:06 07:43:05 30° 258° (WSW) 07:46:47 437.505
YUBILEINY 23 May 07:40:52 07:49:27 61° 92° (E) 07:58:02 435.215
PHONESAT 2.4 23 May 07:42:30 07:45:36 29° 4° (N) 07:48:42 2401.200-2431.200
RS-15 23 May 07:45:56 07:52:25 19° 103° (ESE) 07:59:44 29.354- 29.394
AUBIESAT-1 23 May 07:51:48 07:55:30 25° 259° (WSW) 07:58:55 437.475
GOMX 1 23 May 08:01:26 08:04:52 18° 90° (E) 08:08:24 467.674
VERMONT LUNAR 23 May 08:06:07 08:09:18 62° 21° (NNE) 08:12:29 437.305
ISS 23 May 08:12:09 08:15:26 89° 33° (NNE) 08:18:42 145.825
STRAND 1 23 May 08:15:54 08:19:02 16° 268° (W) 08:21:56 437.568
CANX-2 23 May 08:26:59 08:29:43 17° 93° (E) 08:32:36 2200.000
CUTE 1.7 + AOD 2 23 May 08:31:12 08:33:57 17° 93° (E) 08:36:51 437.475
HO-68 23 May 08:38:14 08:44:27 33° 96° (E) 08:50:48 435.675
AIST 1 23 May 08:42:54 08:47:14 62° 265° (W) 08:51:34
Cosmos 2491 23 May 08:50:43 08:57:38 25° 275° (W) 09:04:08 435.465 / 435.565
SEEDS 23 May 08:59:51 09:03:33 31° 96° (E) 09:07:18 437.485
BRITE-PL 23 May 09:13:29 09:19:03 56° 286° (WNW) 09:24:23 437.365/2234.400
CUBEBUG 2 23 May 09:16:48 09:18:45 13° 90° (E) 09:20:56 437.445
COMPASS 1 23 May 09:19:49 09:23:48 43° 99° (E) 09:27:45 437.405
PHONESAT 2.4 23 May 09:20:37 09:24:04 65° 20° (NNE) 09:27:31 2401.200-2431.200
DOVE 4 23 May 09:21:42 09:26:53 77° 100° (E) 09:31:47 437.250
CINEMA 3 23 May 09:31:23 09:35:56 44° 98° (E) 09:40:17 145.822/145.860
AAUSAT CUBESAT 2 23 May 09:35:34 09:39:39 59° 100° (E) 09:43:43 437.432
ZACube-1 23 May 09:37:07 09:39:08 13° 90° (E) 09:41:21 437.345
GOMX 1 23 May 09:38:06 09:43:19 48° 287° (WNW) 09:48:16 467.674
YUBILEINY 23 May 09:39:52 09:46:56 25° 291° (WNW) 09:53:38 435.215
TIGRISAT 23 May 09:40:42 09:44:08 21° 70° (ENE) 09:47:40 435.000
Cosmos 2504 23 May 09:42:59 09:50:29 37° 89° (E) 09:57:44 435.465 / 435.565
VERMONT LUNAR 23 May 09:43:47 09:46:20 22° 214° (SW) 09:48:52 437.305
NANOSAT C BR1 23 May 09:52:23 09:53:12 11° 67° (ENE) 09:54:18 145.865
RS-15 23 May 09:52:42 10:03:37 86° 300° (WNW) 10:14:46 29.354- 29.394
QB50P2 23 May 09:56:12 09:57:59 13° 68° (ENE) 09:59:59 145.880/145.840
Oscar 11 23 May 09:57:43 10:01:51 46° 99° (E) 10:06:00 145.826/435.025
UNISAT 6 23 May 09:58:24 10:02:35 33° 72° (ENE) 10:06:48 437.425
CANX-2 23 May 10:02:00 10:05:44 30° 287° (WNW) 10:09:23 2200.000
CUTE 1.7 + AOD 2 23 May 10:06:14 10:09:57 30° 287° (WNW) 10:13:36 437.475
HUMSAT D 23 May 10:06:20 10:07:53 12° 90° (E) 10:09:39 437.325/437.525
PCSat 23 May 10:08:23 10:12:09 19° 50° (NE) 10:16:04 145.827
POPSAT HIP 1 23 May 10:08:32 10:11:16 17° 69° (ENE) 10:14:11 437.405
UWE-3 23 May 10:11:20 10:15:35 46° 99° (E) 10:19:43 435.000/436.395/437.385
DUCHIFAT 1 23 May 10:13:45 10:16:43 19° 70° (ENE) 10:19:50 145.980
HO-68 23 May 10:25:39 10:32:16 41° 292° (WNW) 10:38:47 435.675
50 SAT 23 May 10:27:03 10:27:40 10° 90° (E) 10:28:32 437.505
DELFI C3 23 May 10:31:11 10:35:12 88° 105° (ESE) 10:39:13 145.870
FUNcube-1 23 May 10:32:45 10:37:04 64° 100° (E) 10:41:16 145.935
SEEDS 23 May 10:36:21 10:39:09 17° 290° (WNW) 10:41:48 437.485
ANTELSAT 23 May 10:40:59 10:45:43 81° 259° (W) 10:50:25 437.575/2403.000
POLYITAN 1 23 May 10:51:04 10:55:16 57° 75° (ENE) 10:59:30 437.675
QB50P1 23 May 10:51:28 10:55:39 56° 75° (ENE) 10:59:51 145.935-145.965
CUBEBUG 2 23 May 10:51:29 10:55:48 44° 286° (WNW) 10:59:55 437.445
BUGSAT 1 23 May 10:54:59 10:58:47 39° 73° (ENE) 11:02:41 437.445
COMPASS 1 23 May 10:57:15 10:59:07 12° 291° (WNW) 11:00:47 437.405
PHONESAT 2.4 23 May 10:59:11 11:02:00 23° 214° (SW) 11:04:47 2401.200-2431.200
DOVE 4 23 May 11:02:24 11:03:57 11° 296° (WNW) 11:05:11 437.250
ESTCUBE 1 23 May 11:09:24 11:12:46 21° 94° (E) 11:16:15 437.505/2401.250
CINEMA 3 23 May 11:09:47 11:12:45 16° 293° (WNW) 11:15:28 145.822/145.860
ZACube-1 23 May 11:11:39 11:15:46 41° 286° (WNW) 11:19:45 437.345
TIGRISAT 23 May 11:16:23 11:20:40 33° 263° (W) 11:24:54 435.000
UKube-1 23 May 11:21:59 11:26:20 77° 284° (WNW) 11:30:40 .
VELOX 1 23 May 11:22:19 11:26:42 52° 100° (E) 11:31:04 145.980
NANOSAT C BR1 23 May 11:24:25 11:28:36 56° 260° (W) 11:32:50 145.865
DX 1 23 May 11:24:29 11:28:52 66° 284° (WNW) 11:33:13 434.975-435.025
QB50P2 23 May 11:29:22 11:33:30 47° 261° (W) 11:37:39 145.880/145.840
CUBEBUG 1 23 May 11:32:54 11:36:55 33° 97° (E) 11:40:57 437.445
Oscar 11 23 May 11:35:37 11:37:41 13° 292° (WNW) 11:39:32 145.826/435.025
UNISAT 6 23 May 11:35:51 11:39:25 20° 267° (W) 11:42:51 437.425
Cosmos 2504 23 May 11:35:53 11:43:49 40° 284° (WNW) 11:51:12 435.465 / 435.565
HUMSAT D 23 May 11:39:57 11:43:55 42° 286° (WNW) 11:47:47 437.325/437.525
POPSAT HIP 1 23 May 11:43:02 11:46:55 33° 263° (W) 11:50:48 437.405
JUGNU 23 May 11:47:54 11:50:46 14° 169° (SSE) 11:53:42 437.505
DUCHIFAT 1 23 May 11:48:36 11:52:22 29° 264° (W) 11:56:05 145.980
UWE-3 23 May 11:49:33 11:51:43 13° 293° (WNW) 11:53:38 435.000/436.395/437.385
PCSat 23 May 11:50:40 11:55:58 54° 248° (WSW) 12:01:12 145.827
AISAT 23 May 11:52:22 11:56:51 66° 284° (WNW) 12:01:17 437.250
50 SAT 23 May 11:58:59 12:02:40 41° 286° (WNW) 12:06:18 437.505
RS-15 23 May 12:09:21 12:17:58 24° 325° (NW) 12:26:25 29.354- 29.394
SO-50 23 May 12:09:24 12:12:31 17° 46° (NE) 12:15:47 436.795
GONETS M04 23 May 12:12:15 12:17:42 19° 83° (E) 12:23:41
CUSAT 1 23 May 12:22:45 12:27:52 24° 84° (E) 12:33:59 437.405
SPROUT 23 May 12:27:47 12:31:47 36° 97° (E) 12:35:48 437.525
BUGSAT 1 23 May 12:32:24 12:34:30 13° 269° (W) 12:36:22 437.445
ESTCUBE 1 23 May 12:45:42 12:49:40 30° 288° (WNW) 12:53:34 437.505/2401.250
SRMSAT 23 May 12:58:11 13:00:00 11° 166° (SSE) 13:01:55 437.500
VELOX 1 23 May 13:00:48 13:02:51 13° 293° (WNW) 13:04:40 145.980
DANDE 23 May 13:05:05 13:10:54 40° 89° (E) 13:18:10 436.750
TISAT 1 23 May 13:07:02 13:11:20 80° 102° (ESE) 13:15:35 437.305
CUBEBUG 1 23 May 13:09:54 13:13:03 19° 290° (WNW) 13:16:04 437.445
Oscar 19 23 May 13:20:14 13:25:24 74° 76° (ENE) 13:30:37 437.125/150
ITAMSAT 1 23 May 13:26:37 13:30:34 23° 69° (ENE) 13:34:40 435.822/435.867
JUGNU 23 May 13:35:08 13:39:06 19° 178° (S) 13:43:03 437.505
ITUPSAT 1 23 May 13:38:48 13:42:36 24° 95° (E) 13:46:31 437.325
Gurwin Techsat 1B 23 May 13:40:02 13:44:32 30° 70° (ENE) 13:49:07 435.225
SO-50 23 May 13:48:38 13:53:32 59° 244° (WSW) 13:58:18 436.795
BEESAT 23 May 13:48:51 13:53:04 31° 97° (E) 13:57:20 436.000
SWISSCUBE 23 May 13:56:26 14:00:58 42° 99° (E) 14:05:30 437.505
CUSAT 1 23 May 14:03:18 14:09:53 57° 284° (WNW) 14:17:49 437.405
SPROUT 23 May 14:04:51 14:07:37 16° 291° (WNW) 14:10:12 437.525
GONETS M04 23 May 14:04:55 14:13:45 75° 278° (W) 14:22:38
Cosmos 2499 23 May 14:24:51 14:31:12 26° 87° (E) 14:37:30 435.465 / 435.565
AO-7 23 May 14:27:41 14:33:46 24° 60° (ENE) 14:40:10 29.400- 29.500
RS-15 23 May 14:33:18 14:36:29 11° 360° (N) 14:39:41 29.354- 29.394
JAS-2 23 May 14:35:06 14:40:02 22° 69° (ENE) 14:44:49 435.910
SRMSAT 23 May 14:44:36 14:48:28 18° 175° (S) 14:52:21 437.500
HORYU 2 23 May 14:45:18 14:48:27 20° 69° (ENE) 14:51:45 437.375
DANDE 23 May 14:48:18 14:54:15 34° 291° (WNW) 15:01:18 436.750
KKS-1 23 May 14:57:54 15:01:46 29° 96° (E) 15:05:41 437.445
Oscar 19 23 May 15:04:27 15:05:24 10° 272° (W) 15:05:55 437.125/150
ITAMSAT 1 23 May 15:05:11 15:09:54 35° 263° (W) 15:14:36 435.822/435.867
ITUPSAT 1 23 May 15:16:21 15:20:30 29° 289° (WNW) 15:24:34 437.325
Gurwin Techsat 1B 23 May 15:19:53 15:24:29 29° 265° (W) 15:28:59 435.225
O/OREOS (USA 219) 23 May 15:20:01 15:22:56 18° 102° (ESE) 15:26:01 437.305
JUGNU 23 May 15:23:54 15:27:25 16° 188° (S) 15:30:54 437.505
BEESAT 23 May 15:27:01 15:30:45 22° 291° (WNW) 15:34:21 436.000
SWISSCUBE 23 May 15:35:21 15:38:32 17° 292° (WNW) 15:41:31 437.505
GONETS M04 23 May 16:09:03 16:12:29 12° 300° (WNW) 16:15:07
STARS 23 May 16:11:32 16:15:56 62° 285° (WNW) 16:20:16 437.465
Cosmos 2499 23 May 16:15:51 16:24:02 54° 281° (W) 16:31:35 435.465 / 435.565
AO-7 23 May 16:17:43 16:25:57 69° 256° (WSW) 16:34:15 29.400- 29.500
JAS-2 23 May 16:17:54 16:24:53 56° 260° (W) 16:31:05 435.910
HORYU 2 23 May 16:20:51 16:24:54 32° 263° (W) 16:28:55 437.375
SRMSAT 23 May 16:33:05 16:36:58 18° 185° (S) 16:40:50 437.500
KKS-1 23 May 16:34:49 16:38:16 21° 290° (WNW) 16:41:35 437.445
RS-15 23 May 16:46:35 16:55:10 24° 35° (NE) 17:04:26 29.354- 29.394
CUTE-I 23 May 16:51:52 16:53:42 12° 64° (ENE) 16:55:52 437.470
O/OREOS (USA 219) 23 May 16:57:58 17:02:08 34° 295° (WNW) 17:06:15 437.305
Cubesat XI-IV 23 May 17:09:25 17:12:56 19° 67° (ENE) 17:16:40 437.490
MOZHAYETS 4 23 May 17:34:42 17:39:14 65° 284° (WNW) 17:43:45
BEESAT 3 23 May 17:43:36 17:45:50 15° 110° (ESE) 17:48:15 437.485
YUBILEINY 23 May 17:56:28 18:03:02 24° 69° (ENE) 18:09:56 435.215
Cosmos 2491 23 May 17:59:56 18:01:47 11° 79° (E) 18:04:30 435.465 / 435.565
SRMSAT 23 May 18:23:30 18:25:27 11° 194° (SSW) 18:27:16 437.500
BEESAT 2 23 May 18:25:25 18:29:11 37° 114° (ESE) 18:33:02 435.950
CUTE-I 23 May 18:27:57 18:33:13 75° 257° (WSW) 18:38:34 437.470
BRITE-PL 23 May 18:45:22 18:47:13 12° 64° (ENE) 18:49:25 437.365/2234.400
Cubesat XI-IV 23 May 18:47:37 18:52:43 47° 261° (W) 18:57:50 437.490
STRAND 1 23 May 18:49:21 18:53:15 22° 94° (E) 18:57:18 437.568
PRISM 23 May 18:52:36 18:55:59 24° 96° (E) 18:59:26 437.425
RS-15 23 May 18:58:07 19:09:52 80° 60° (ENE) 19:22:05 29.354- 29.394
CUBESAT XI-V 23 May 19:02:31 19:07:14 83° 103° (ESE) 19:11:57 437.345
HO-68 23 May 19:05:04 19:09:22 18° 61° (ENE) 19:14:00 435.675
GOMX 1 23 May 19:07:01 19:09:13 13° 65° (ENE) 19:11:46 467.674
BEESAT 3 23 May 19:19:42 19:23:31 38° 303° (WNW) 19:27:22 437.485
M-CUBED/EXP-1 PRIME 23 May 19:24:15 19:26:39 19° 100° (E) 19:29:08 437.505
AIST 2 23 May 19:28:30 19:32:37 53° 116° (ESE) 19:36:49 435.215
AUBIESAT-1 23 May 19:35:50 19:38:31 23° 101° (E) 19:41:16 437.475
Cosmos 2491 23 May 19:48:43 19:57:27 77° 94° (E) 20:06:17 435.465 / 435.565
SEEDS 23 May 19:49:45 19:52:07 15° 70° (ENE) 19:54:41 437.485
YUBILEINY 23 May 19:52:01 20:00:33 62° 268° (W) 20:09:02 435.215
BEESAT 2 23 May 20:04:36 20:07:27 17° 310° (NW) 20:10:12 435.950
COMPASS 1 23 May 20:08:24 20:11:24 20° 71° (ENE) 20:14:31 437.405
BRITE-PL 23 May 20:20:13 20:25:03 70° 260° (W) 20:30:20 437.365/2234.400
DOVE 4 23 May 20:23:02 20:27:50 52° 74° (ENE) 20:32:55 437.250
AAUSAT CUBESAT 2 23 May 20:23:21 20:26:45 25° 72° (ENE) 20:30:14 437.432
STRAND 1 23 May 20:27:52 20:32:33 36° 289° (WNW) 20:37:11 437.568
PRISM 23 May 20:28:06 20:31:20 22° 289° (WNW) 20:34:28 437.425
CINEMA 3 23 May 20:29:18 20:33:29 29° 71° (ENE) 20:37:51 145.822/145.860
GOMX 1 23 May 20:41:49 20:46:43 66° 260° (W) 20:51:59 467.674
HO-68 23 May 20:49:12 20:56:24 79° 256° (WSW) 21:03:38 435.675
Oscar 11 23 May 20:49:34 20:52:59 24° 71° (ENE) 20:56:29 145.826/435.025
CANX-2 23 May 20:50:41 20:54:56 69° 258° (WSW) 20:59:13 2200.000
CUTE 1.7 + AOD 2 23 May 20:54:49 20:59:05 69° 259° (W) 21:03:21 437.475
M-CUBED/EXP-1 PRIME 23 May 20:59:16 21:01:27 16° 294° (WNW) 21:03:31 437.505
UWE-3 23 May 21:04:56 21:08:49 27° 72° (ENE) 21:12:48 435.000/436.395/437.385
AIST 1 23 May 21:08:29 21:12:43 88° 276° (W) 21:17:00
AIST 2 23 May 21:09:10 21:11:34 14° 313° (NW) 21:13:50 435.215
AUBIESAT-1 23 May 21:11:25 21:13:11 13° 294° (WNW) 21:14:48 437.475
RS-15 23 May 21:12:26 21:21:28 25° 255° (WSW) 21:30:01 29.354- 29.394
DELFI C3 23 May 21:15:17 21:18:51 31° 73° (ENE) 21:22:28 145.870
SEEDS 23 May 21:23:42 21:27:39 37° 262° (W) 21:31:35 437.485
FUNcube-1 23 May 21:24:48 21:28:53 34° 73° (ENE) 21:33:03 145.935
Cosmos 2504 23 May 21:32:10 21:39:16 59° 80° (E) 21:46:22 435.465 / 435.565
COMPASS 1 23 May 21:43:19 21:46:56 27° 264° (W) 21:50:30 437.405
CUBEBUG 2 23 May 21:45:11 21:49:55 85° 256° (WSW) 21:54:44 437.445
Cosmos 2491 23 May 21:49:16 21:55:25 19° 294° (WNW) 22:01:07 435.465 / 435.565
AAUSAT CUBESAT 2 23 May 21:59:07 22:02:21 21° 266° (W) 22:05:29 437.432
DOVE 4 23 May 22:03:00 22:06:00 15° 271° (W) 22:08:49 437.250
ZACube-1 23 May 22:03:10 22:07:46 85° 258° (WSW) 22:12:23 437.345
CINEMA 3 23 May 22:06:29 22:10:38 26° 266° (W) 22:14:48 145.822/145.860
ESTCUBE 1 23 May 22:07:08 22:09:11 13° 67° (ENE) 22:11:26 437.505/2401.250
UKube-1 23 May 22:13:11 22:17:23 55° 75° (ENE) 22:21:39 .
DX 1 23 May 22:16:23 22:20:40 67° 75° (ENE) 22:25:00 434.975-435.025
VELOX 1 23 May 22:16:47 22:20:36 30° 72° (ENE) 22:24:30 145.980
Oscar 11 23 May 22:25:30 22:29:06 24° 265° (W) 22:32:37 145.826/435.025
CUBEBUG 1 23 May 22:26:33 22:29:29 19° 70° (ENE) 22:32:35 437.445
HUMSAT D 23 May 22:27:30 22:31:50 82° 78° (ENE) 22:36:11 437.325/437.525
ANTELSAT 23 May 22:37:24 22:41:03 26° 95° (E) 22:44:43 437.575/2403.000
50 SAT 23 May 22:39:38 22:43:35 62° 77° (ENE) 22:47:34 437.505
UWE-3 23 May 22:41:24 22:45:18 25° 266° (W) 22:49:08 435.000/436.395/437.385
POLYITAN 1 23 May 22:42:06 22:43:45 12° 91° (E) 22:45:40 437.675
QB50P1 23 May 22:42:13 22:43:49 12° 91° (E) 22:45:40 145.935-145.965
AISAT 23 May 22:46:24 22:50:48 71° 76° (ENE) 22:55:15 437.250
DELFI C3 23 May 22:51:35 22:54:05 15° 268° (W) 22:56:25 145.870
FUNcube-1 23 May 23:01:57 23:05:18 19° 267° (W) 23:08:32 145.935
CUSAT 1 23 May 23:06:42 23:10:26 15° 59° (ENE) 23:14:12 437.405
TIGRISAT 23 May 23:11:27 23:15:50 67° 101° (E) 23:20:05 435.000
NANOSAT C BR1 23 May 23:13:11 23:16:54 29° 96° (E) 23:20:38 145.865
ISS 23 May 23:13:59 23:15:46 14° 128° (SE) 23:17:41 145.825
QB50P2 23 May 23:18:19 23:22:14 35° 97° (E) 23:26:09 145.880/145.840
SPROUT 23 May 23:19:21 23:22:21 19° 70° (ENE) 23:25:28 437.525
Cosmos 2504 23 May 23:27:11 23:32:06 19° 275° (W) 23:36:39 435.465 / 435.565
UNISAT 6 23 May 23:30:16 23:34:40 70° 284° (WNW) 23:38:56 437.425
POPSAT HIP 1 23 May 23:31:21 23:35:31 49° 99° (E) 23:39:39 437.405
DUCHIFAT 1 23 May 23:36:16 23:40:28 55° 100° (E) 23:44:38 145.980
ESTCUBE 1 23 May 23:41:21 23:45:41 48° 261° (W) 23:50:01 437.505/2401.250
DANDE 23 May 23:51:39 23:58:23 30° 68° (ENE) 00:04:10 436.750
VELOX 1 23 May 23:53:54 23:57:13 20° 266° (W) 00:00:24 145.980
TISAT 1 23 May 23:55:48 23:59:39 36° 73° (ENE) 00:03:36 437.305
CUBEBUG 1 24 May 00:01:45 00:05:39 32° 263° (W) 00:09:32 437.445
ANTELSAT 24 May 00:14:18 00:17:44 22° 290° (WNW) 00:21:00 437.575/2403.000
BUGSAT 1 24 May 00:15:35 00:19:51 71° 285° (WNW) 00:24:05 437.445
POLYITAN 1 24 May 00:15:52 00:19:58 44° 286° (WNW) 00:24:01 437.675
QB50P1 24 May 00:15:52 00:19:59 45° 286° (WNW) 00:24:02 145.935-145.965
GONETS M04 24 May 00:19:56 00:28:17 47° 77° (ENE) 00:36:38
ITUPSAT 1 24 May 00:42:53 00:46:11 20° 69° (ENE) 00:49:38 437.325
PCSat 24 May 00:46:00 00:50:42 32° 109° (ESE) 00:55:31 145.827
CUSAT 1 24 May 00:47:08 00:54:33 81° 264° (W) 01:00:15 437.405
ISS 24 May 00:48:53 00:51:58 40° 322° (NW) 00:55:03 145.825
NANOSAT C BR1 24 May 00:49:26 00:52:34 19° 290° (WNW) 00:55:33 145.865
BEESAT 24 May 00:52:20 00:56:08 25° 70° (ENE) 01:00:02 436.000
SPROUT 24 May 00:54:24 00:58:14 30° 264° (W) 01:02:03 437.525
QB50P2 24 May 00:55:06 00:57:52 16° 291° (WNW) 01:00:28 145.880/145.840
SWISSCUBE 24 May 00:59:48 01:04:01 33° 71° (ENE) 01:08:16 437.505
POPSAT HIP 1 24 May 01:09:12 01:10:59 12° 292° (WNW) 01:12:33 437.405
DUCHIFAT 1 24 May 01:14:42 01:15:50 11° 293° (WNW) 01:16:43 145.980
O/OREOS (USA 219) 24 May 01:32:40 01:35:53 20° 60° (ENE) 01:39:13 437.305
TISAT 1 24 May 01:33:04 01:35:37 15° 268° (W) 01:37:59 437.305
Oscar 19 24 May 01:35:48 01:40:27 34° 97° (E) 01:45:07 437.125/150
ITAMSAT 1 24 May 01:45:51 01:46:03 10° 89° (E) 01:46:40 435.822/435.867
